Location: Ferintosh
(52.7647°N, 112.9692°W)
Time: 13:39:58
(UTC+00:00)

Transit 2A - Pass Details

Date: 22 May 2024
Orbit: 593 x 959 km, 66.7° (Epoch: 14 June)

Event Time Altitude Azimuth Distance (km) Brightness Sun altitude
Rises 15:07:00 0° 318° (NW) 3,379 8.9 31.0°
Reaches altitude 10° 15:09:28 10° 312° (NW) 2,495 8.3 31.4°
Maximum altitude 15:14:58 45° 241° (WSW) 1,221 7.1 32.2°
Drops below altitude 10° 15:20:49 10° 172° (S) 2,654 9.1 33.1°
Sets 15:23:31 0° 166° (SSE) 3,615 9.8 33.5°
